Appleton, MN

8:07 AM CST on January 17, 2018 (GMT -0600)
Appleton Municipal

Weather History for KAQP - November, 2012

Change the Weather History Date:

Wednesday, November 7, 2012

  Actual Average Record
Temperature  
Mean Temperature 38 °F -  
Max Temperature 51 °F 41 °F 71 °F (1999)
Min Temperature 24 °F 24 °F 5 °F (2003)
Degree Days  
Heating Degree Days 28    
Moisture  
Dew Point 32 °F    
Average Humidity 74    
Maximum Humidity 100    
Minimum Humidity 44    
Precipitation  
Precipitation 0.00 in - - ()
Sea Level Pressure  
Sea Level Pressure 30.02 in    
Wind  
Wind Speed 6 mph (SSW)    
Max Wind Speed 14 mph    
Max Gust Speed 20 mph    
Visibility 10 miles    
Events      
Averages and records for this station are not official NWS values.
T = Trace of Precipitation, MM = Missing Value Source: NWS Daily Summary

Daily Weather History Graph

Daily Weather History Graph

Search for Another Location

Airport or City:

Trip Planner

Search our weather history database for the weather conditions in past years. The results will help you decide how hot, cold, wet, or windy it might be!

Date:

Astronomy

Nov. 07, 2012 Rise Set
Actual Time 7:11 AM CST 5:02 PM CST
Civil Twilight 6:40 AM CST 5:34 PM CST
Nautical Twilight 6:05 AM CST 6:09 PM CST
Astronomical Twilight 5:30 AM CST 6:43 PM CST
Moon No Moon Rise 1:29 PM CST (11/7)
Length of Visible Light 10h 53m
Length of Day
9h 50m
Last Quarter, 43% of the Moon is Illuminated
Nov 7
Last Quarter
Nov 13
New
Nov 20
First Quarter
Nov 28
Full
Dec 6
Last Quarter

Hourly Weather History & Observations

Time (CST) Temp. Windchill Dew Point Humidity Pressure Visibility Wind Dir Wind Speed Gust Speed Precip Events Conditions
12:13 AM 39.2 °F 33.6 °F 35.6 °F 87% 30.03 in 10.0 mi NNW 8.1 mph - N/A   Overcast
12:33 AM 39.2 °F 35.0 °F 33.8 °F 81% 30.04 in 10.0 mi NW 5.8 mph - N/A   Overcast
12:53 AM 37.4 °F 32.1 °F 33.8 °F 87% 30.04 in 10.0 mi NW 6.9 mph - N/A   Overcast
1:13 AM 39.2 °F 35.9 °F 35.6 °F 87% 30.05 in 10.0 mi NW 4.6 mph - N/A   Overcast
1:33 AM 39.2 °F 35.0 °F 35.6 °F 87% 30.05 in 10.0 mi West 5.8 mph - N/A   Overcast
1:53 AM 39.2 °F 35.9 °F 35.6 °F 87% 30.06 in 10.0 mi WNW 4.6 mph - N/A   Overcast
2:13 AM 39.2 °F 37.0 °F 35.6 °F 87% 30.06 in 10.0 mi WNW 3.5 mph - N/A   Overcast
2:53 AM 37.4 °F 32.8 °F 33.8 °F 87% 30.07 in 10.0 mi West 5.8 mph - N/A   Overcast
3:13 AM 35.6 °F 30.7 °F 33.8 °F 93% 30.07 in 10.0 mi West 5.8 mph - N/A   Mostly Cloudy
3:33 AM 35.6 °F 30.7 °F 30.2 °F 81% 30.07 in 10.0 mi WNW 5.8 mph - N/A   Scattered Clouds
3:53 AM 30.2 °F 25.4 °F 28.4 °F 93% 30.07 in 10.0 mi West 4.6 mph - N/A   Clear
4:13 AM 30.2 °F - 28.4 °F 93% 30.07 in 10.0 mi Calm Calm - N/A   Clear
4:34 AM 30.2 °F 25.4 °F 26.6 °F 86% 30.08 in 10.0 mi West 4.6 mph - N/A   Clear
4:53 AM 28.4 °F 24.6 °F 26.6 °F 93% 30.08 in 10.0 mi West 3.5 mph - N/A   Clear
5:14 AM 26.6 °F 22.6 °F 26.6 °F 100% 30.09 in 10.0 mi West 3.5 mph - N/A   Clear
5:33 AM 26.6 °F 21.2 °F 24.8 °F 93% 30.09 in 10.0 mi West 4.6 mph - N/A   Clear
5:53 AM 26.6 °F 21.2 °F 24.8 °F 93% 30.09 in 10.0 mi West 4.6 mph - N/A   Clear
6:13 AM 24.8 °F 17.9 °F 24.8 °F 100% 30.09 in 10.0 mi West 5.8 mph - N/A   Clear
6:33 AM 26.6 °F 18.2 °F 26.6 °F 100% 30.09 in 10.0 mi West 8.1 mph - N/A   Clear
6:53 AM 26.6 °F 18.2 °F 24.8 °F 93% 30.09 in 10.0 mi West 8.1 mph - N/A   Clear
7:13 AM 26.6 °F 22.6 °F 24.8 °F 93% 30.09 in 10.0 mi West 3.5 mph - N/A   Clear
7:33 AM 28.4 °F - 26.6 °F 93% 30.09 in 10.0 mi Calm Calm - N/A   Clear
7:54 AM 28.4 °F 24.6 °F 28.4 °F 100% 30.10 in 10.0 mi WSW 3.5 mph - N/A   Clear
8:14 AM 30.2 °F - 28.4 °F 93% 30.10 in 10.0 mi Calm Calm - N/A   Clear
8:33 AM 30.2 °F - 30.2 °F 100% 30.10 in 10.0 mi Calm Calm - N/A   Clear
8:54 AM 33.8 °F 30.8 °F 30.2 °F 87% 30.10 in 10.0 mi SW 3.5 mph - N/A   Clear
9:13 AM 35.6 °F - 32.0 °F 87% 30.10 in 10.0 mi Calm Calm - N/A   Clear
9:33 AM 37.4 °F - 32.0 °F 81% 30.10 in 10.0 mi Calm Calm - N/A   Clear
9:53 AM 39.2 °F - 32.0 °F 75% 30.10 in 10.0 mi Calm Calm - N/A   Clear
10:13 AM 41.0 °F - 33.8 °F 76% 30.10 in 10.0 mi Calm Calm - N/A   Clear
10:33 AM 42.8 °F - 33.8 °F 70% 30.10 in 10.0 mi Calm Calm - N/A   Clear
10:53 AM 44.6 °F - 33.8 °F 66% 30.10 in 10.0 mi Calm Calm - N/A   Clear
11:13 AM 44.6 °F 43.1 °F 33.8 °F 66% 30.10 in 10.0 mi SW 3.5 mph - N/A   Clear
11:33 AM 44.6 °F 43.1 °F 33.8 °F 66% 30.09 in 10.0 mi South 3.5 mph - N/A   Clear
11:53 AM 48.2 °F - 33.8 °F 58% 30.07 in 10.0 mi South 5.8 mph - N/A   Clear
12:13 PM 48.2 °F - 33.8 °F 58% 30.06 in 10.0 mi South 4.6 mph - N/A   Clear
12:33 PM 48.2 °F - 33.8 °F 58% 30.05 in 10.0 mi South 3.5 mph - N/A   Clear
12:53 PM 50.0 °F - 32.0 °F 50% 30.04 in 10.0 mi SSE 6.9 mph - N/A   Clear
1:13 PM 51.8 °F - 33.8 °F 50% 30.03 in 10.0 mi South 8.1 mph - N/A   Clear
1:33 PM 51.8 °F - 30.2 °F 44% 30.02 in 10.0 mi South 10.4 mph - N/A   Clear
1:53 PM 51.8 °F - 33.8 °F 50% 30.02 in 10.0 mi SSW 9.2 mph - N/A   Clear
2:14 PM 51.8 °F - 33.8 °F 50% 30.01 in 10.0 mi South 5.8 mph - N/A   Clear
2:34 PM 51.8 °F - 33.8 °F 50% 30.00 in 10.0 mi South 9.2 mph - N/A   Clear
2:54 PM 51.8 °F - 32.0 °F 47% 29.99 in 10.0 mi South 10.4 mph - N/A   Clear
3:13 PM 51.8 °F - 32.0 °F 47% 29.99 in 10.0 mi South 10.4 mph - N/A   Clear
3:38 PM 50.0 °F - 32.0 °F 50% 29.99 in 10.0 mi South 10.4 mph - N/A   Clear
3:54 PM 50.0 °F - 32.0 °F 50% 29.98 in 10.0 mi South 11.5 mph - N/A   Clear
4:14 PM 50.0 °F - 33.8 °F 54% 29.98 in 10.0 mi South 9.2 mph - N/A   Clear
4:33 PM 48.2 °F - 33.8 °F 58% 29.98 in 10.0 mi South 8.1 mph - N/A   Clear
4:53 PM 48.2 °F - 33.8 °F 58% 29.96 in 10.0 mi SSE 9.2 mph - N/A   Clear
5:13 PM 46.4 °F 42.4 °F 33.8 °F 62% 29.96 in 10.0 mi SSE 8.1 mph - N/A   Clear
5:33 PM 46.4 °F 42.9 °F 33.8 °F 62% 29.96 in 10.0 mi SSE 6.9 mph - N/A   Clear
5:53 PM 44.6 °F 40.7 °F 33.8 °F 66% 29.96 in 10.0 mi SE 6.9 mph - N/A   Clear
6:13 PM 44.6 °F 40.2 °F 33.8 °F 66% 29.96 in 10.0 mi SSE 8.1 mph - N/A   Clear
6:33 PM 44.6 °F 39.7 °F 33.8 °F 66% 29.96 in 10.0 mi SSE 9.2 mph - N/A   Clear
6:53 PM 44.6 °F 39.2 °F 33.8 °F 66% 29.95 in 10.0 mi SE 10.4 mph - N/A   Clear
7:13 PM 44.6 °F 39.2 °F 33.8 °F 66% 29.95 in 10.0 mi SE 10.4 mph - N/A   Clear
7:33 PM 44.6 °F 39.2 °F 33.8 °F 66% 29.95 in 10.0 mi SE 10.4 mph - N/A   Clear
7:53 PM 44.6 °F 38.1 °F 33.8 °F 66% 29.94 in 10.0 mi SE 13.8 mph 17.3 mph N/A   Clear
8:13 PM 42.8 °F 37.5 °F 33.8 °F 70% 29.94 in 10.0 mi SE 9.2 mph - N/A   Clear
8:33 PM 42.8 °F 38.0 °F 33.8 °F 70% 29.94 in 10.0 mi SE 8.1 mph - N/A   Clear
8:54 PM 42.8 °F 36.6 °F 33.8 °F 70% 29.95 in 10.0 mi SSE 11.5 mph - N/A   Clear
9:13 PM 42.8 °F 36.2 °F 33.8 °F 70% 29.95 in 10.0 mi SSE 12.7 mph 17.3 mph N/A   Clear
9:33 PM 42.8 °F 35.8 °F 33.8 °F 70% 29.95 in 10.0 mi SSE 13.8 mph 18.4 mph N/A   Clear
9:53 PM 41.0 °F 33.5 °F 33.8 °F 76% 29.94 in 10.0 mi SSE 13.8 mph 19.6 mph N/A   Clear
10:14 PM 41.0 °F 34.3 °F 33.8 °F 76% 29.93 in 10.0 mi SSE 11.5 mph - N/A   Clear
10:34 PM 39.2 °F 31.2 °F 33.8 °F 81% 29.92 in 10.0 mi SSE 13.8 mph - N/A   Clear
10:53 PM 39.2 °F 31.6 °F 33.8 °F 81% 29.92 in 10.0 mi SSE 12.7 mph - N/A   Clear
11:13 PM 39.2 °F 32.0 °F 33.8 °F 81% 29.91 in 10.0 mi SSE 11.5 mph 18.4 mph N/A   Clear
11:33 PM 39.2 °F 31.2 °F 33.8 °F 81% 29.91 in 10.0 mi SSE 13.8 mph - N/A   Clear
11:53 PM 39.2 °F 31.6 °F 33.8 °F 81% 29.91 in 10.0 mi SSE 12.7 mph 18.4 mph N/A   Clear